Time,TemperatureF,DewpointF,PressureIn,WindDirection,WindDirectionDegrees,WindSpeedMPH,WindSpeedGustMPH,Humidity,HourlyPrecipIn,Conditions,Clouds,dailyrainin,SoftwareType,DateUTC
2013-05-08 00:00:00,52.0,-99.9,29.70,North,-999,-999.0,-999.0,-999,-99.99,,,-99.99,,2013-05-07 23:00:00,
2013-05-08 00:42:00,52.0,-99.9,29.70,North,-999,-999.0,-999.0,-999,-99.99,,,-99.99,,2013-05-07 23:42:00,
2013-05-08 00:52:00,52.0,-99.9,29.70,North,-999,-999.0,-999.0,-999,-99.99,,,-99.99,,2013-05-07 23:52:00,
2013-05-08 01:00:00,54.0,-99.9,29.67,North,-999,-999.0,-999.0,-999,-99.99,,,-99.99,,2013-05-08 00:00:00,
2013-05-08 01:42:00,54.0,-99.9,29.67,North,-999,-999.0,-999.0,-999,-99.99,,,-99.99,,2013-05-08 00:42:00,
2013-05-08 01:52:00,54.0,-99.9,29.67,North,-999,-999.0,-999.0,-999,-99.99,,,-99.99,,2013-05-08 00:52:00,
2013-05-08 02:00:00,53.0,-99.9,29.65,North,-999,-999.0,-999.0,-999,-99.99,,,-99.99,,2013-05-08 01:00:00,
2013-05-08 02:42:00,53.0,-99.9,29.65,North,-999,-999.0,-999.0,-999,-99.99,,,-99.99,,2013-05-08 01:42:00,
2013-05-08 02:52:00,53.0,-99.9,29.65,North,-999,-999.0,-999.0,-999,-99.99,,,-99.99,,2013-05-08 01:52:00,
2013-05-08 03:00:00,54.0,-99.9,29.66,North,-999,-999.0,-999.0,-999,-99.99,,,-99.99,,2013-05-08 02:00:00,
2013-05-08 03:32:00,54.0,-99.9,29.66,North,-999,-999.0,-999.0,-999,-99.99,,,-99.99,,2013-05-08 02:32:00,
2013-05-08 03:42:00,54.0,-99.9,29.66,North,-999,-999.0,-999.0,-999,-99.99,,,-99.99,,2013-05-08 02:42:00,
2013-05-08 03:52:00,54.0,-99.9,29.66,North,-999,-999.0,-999.0,-999,-99.99,,,-99.99,,2013-05-08 02:52:00,
2013-05-08 04:00:00,58.0,-99.9,29.64,North,-999,-999.0,-999.0,-999,-99.99,,,-99.99,,2013-05-08 03:00:00,
2013-05-08 04:43:00,58.0,-99.9,29.64,North,-999,-999.0,-999.0,-999,-99.99,,,-99.99,,2013-05-08 03:43:00,
2013-05-08 04:53:00,58.0,-99.9,29.64,North,-999,-999.0,-999.0,-999,-99.99,,,-99.99,,2013-05-08 03:53:00,
2013-05-08 05:00:00,60.0,-99.9,29.65,North,-999,-999.0,-999.0,-999,-99.99,,,-99.99,,2013-05-08 04:00:00,
2013-05-08 05:33:00,60.0,-99.9,29.65,North,-999,-999.0,-999.0,-999,-99.99,,,-99.99,,2013-05-08 04:33:00,
2013-05-08 05:43:00,60.0,-99.9,29.65,North,-999,-999.0,-999.0,-999,-99.99,,,-99.99,,2013-05-08 04:43:00,
2013-05-08 05:53:00,60.0,-99.9,29.65,North,-999,-999.0,-999.0,-999,-99.99,,,-99.99,,2013-05-08 04:53:00,
2013-05-08 06:00:00,58.0,-99.9,29.59,North,-999,-999.0,-999.0,-999,-99.99,,,-99.99,,2013-05-08 05:00:00,
2013-05-08 06:42:00,58.0,-99.9,29.59,North,-999,-999.0,-999.0,-999,-99.99,,,-99.99,,2013-05-08 05:42:00,
2013-05-08 06:52:00,58.0,-99.9,29.59,North,-999,-999.0,-999.0,-999,-99.99,,,-99.99,,2013-05-08 05:52:00,
2013-05-08 07:00:00,56.0,-99.9,29.56,North,-999,-999.0,-999.0,-999,-99.99,,,-99.99,,2013-05-08 06:00:00,
2013-05-08 07:32:00,56.0,-99.9,29.56,North,-999,-999.0,-999.0,-999,-99.99,,,-99.99,,2013-05-08 06:32:00,
2013-05-08 07:42:00,56.0,-99.9,29.56,North,-999,-999.0,-999.0,-999,-99.99,,,-99.99,,2013-05-08 06:42:00,
2013-05-08 07:52:00,56.0,-99.9,29.56,North,-999,-999.0,-999.0,-999,-99.99,,,-99.99,,2013-05-08 06:52:00,
2013-05-08 08:00:00,56.0,-99.9,29.54,North,-999,-999.0,-999.0,-999,-99.99,,,-99.99,,2013-05-08 07:00:00,
2013-05-08 08:42:00,56.0,-99.9,29.54,North,-999,-999.0,-999.0,-999,-99.99,,,-99.99,,2013-05-08 07:42:00,
2013-05-08 08:52:00,56.0,-99.9,29.54,North,-999,-999.0,-999.0,-999,-99.99,,,-99.99,,2013-05-08 07:52:00,
2013-05-08 09:00:00,56.0,-99.9,29.55,North,-999,-999.0,-999.0,-999,-99.99,,,-99.99,,2013-05-08 08:00:00,
2013-05-08 09:43:00,56.0,-99.9,29.55,North,-999,-999.0,-999.0,-999,-99.99,,,-99.99,,2013-05-08 08:43:00,
2013-05-08 09:52:00,56.0,-99.9,29.55,North,-999,-999.0,-999.0,-999,-99.99,,,-99.99,,2013-05-08 08:52:00,
2013-05-08 10:00:00,57.0,-99.9,29.54,North,-999,-999.0,-999.0,-999,-99.99,,,-99.99,,2013-05-08 09:00:00,
2013-05-08 10:42:00,57.0,-99.9,29.54,North,-999,-999.0,-999.0,-999,-99.99,,,-99.99,,2013-05-08 09:42:00,
2013-05-08 10:53:00,57.0,-99.9,29.54,North,-999,-999.0,-999.0,-999,-99.99,,,-99.99,,2013-05-08 09:53:00,
2013-05-08 11:00:00,56.0,-99.9,29.52,North,-999,-999.0,-999.0,-999,-99.99,,,-99.99,,2013-05-08 10:00:00,
2013-05-08 11:42:00,56.0,-99.9,29.52,North,-999,-999.0,-999.0,-999,-99.99,,,-99.99,,2013-05-08 10:42:00,
2013-05-08 11:53:00,56.0,-99.9,29.52,North,-999,-999.0,-999.0,-999,-99.99,,,-99.99,,2013-05-08 10:53:00,
2013-05-08 12:00:00,53.0,-99.9,29.49,North,-999,-999.0,-999.0,-999,-99.99,,,-99.99,,2013-05-08 11:00:00,
2013-05-08 12:42:00,53.0,-99.9,29.49,North,-999,-999.0,-999.0,-999,-99.99,,,-99.99,,2013-05-08 11:42:00,
2013-05-08 12:52:00,53.0,-99.9,29.49,North,-999,-999.0,-999.0,-999,-99.99,,,-99.99,,2013-05-08 11:52:00,
2013-05-08 13:00:00,52.0,-99.9,29.47,North,-999,-999.0,-999.0,-999,-99.99,,,-99.99,,2013-05-08 12:00:00,
2013-05-08 13:32:00,52.0,-99.9,29.47,North,-999,-999.0,-999.0,-999,-99.99,,,-99.99,,2013-05-08 12:32:00,
2013-05-08 13:42:00,52.0,-99.9,29.47,North,-999,-999.0,-999.0,-999,-99.99,,,-99.99,,2013-05-08 12:42:00,
2013-05-08 13:52:00,52.0,-99.9,29.47,North,-999,-999.0,-999.0,-999,-99.99,,,-99.99,,2013-05-08 12:52:00,
2013-05-08 14:00:00,50.0,-99.9,29.44,North,-999,-999.0,-999.0,-999,-99.99,,,-99.99,,2013-05-08 13:00:00,
2013-05-08 14:42:00,50.0,-99.9,29.44,North,-999,-999.0,-999.0,-999,-99.99,,,-99.99,,2013-05-08 13:42:00,
2013-05-08 14:52:00,50.0,-99.9,29.44,North,-999,-999.0,-999.0,-999,-99.99,,,-99.99,,2013-05-08 13:52:00,
2013-05-08 15:00:00,49.0,-99.9,29.44,North,-999,-999.0,-999.0,-999,-99.99,,,-99.99,,2013-05-08 14:00:00,
2013-05-08 15:42:00,49.0,-99.9,29.44,North,-999,-999.0,-999.0,-999,-99.99,,,-99.99,,2013-05-08 14:42:00,
2013-05-08 15:52:00,49.0,-99.9,29.44,North,-999,-999.0,-999.0,-999,-99.99,,,-99.99,,2013-05-08 14:52:00,
2013-05-08 16:00:00,49.0,-99.9,29.39,North,-999,-999.0,-999.0,-999,-99.99,,,-99.99,,2013-05-08 15:00:00,
2013-05-08 16:42:00,49.0,-99.9,29.39,North,-999,-999.0,-999.0,-999,-99.99,,,-99.99,,2013-05-08 15:42:00,
2013-05-08 16:53:00,49.0,-99.9,29.39,North,-999,-999.0,-999.0,-999,-99.99,,,-99.99,,2013-05-08 15:53:00,
2013-05-08 17:00:00,56.0,-99.9,29.39,North,-999,-999.0,-999.0,-999,-99.99,,,-99.99,,2013-05-08 16:00:00,
2013-05-08 17:42:00,56.0,-99.9,29.39,North,-999,-999.0,-999.0,-999,-99.99,,,-99.99,,2013-05-08 16:42:00,
2013-05-08 17:53:00,56.0,-99.9,29.39,North,-999,-999.0,-999.0,-999,-99.99,,,-99.99,,2013-05-08 16:53:00,
2013-05-08 18:00:00,55.0,-99.9,29.46,North,-999,-999.0,-999.0,-999,-99.99,,,-99.99,,2013-05-08 17:00:00,
2013-05-08 18:52:00,55.0,-99.9,29.46,North,-999,-999.0,-999.0,-999,-99.99,,,-99.99,,2013-05-08 17:52:00,
2013-05-08 19:00:00,53.0,-99.9,29.48,North,-999,-999.0,-999.0,-999,-99.99,,,-99.99,,2013-05-08 18:00:00,
2013-05-08 19:42:00,53.0,-99.9,29.48,North,-999,-999.0,-999.0,-999,-99.99,,,-99.99,,2013-05-08 18:42:00,
2013-05-08 19:52:00,53.0,-99.9,29.48,North,-999,-999.0,-999.0,-999,-99.99,,,-99.99,,2013-05-08 18:52:00,
2013-05-08 20:00:00,52.0,-99.9,29.49,North,-999,-999.0,-999.0,-999,-99.99,,,-99.99,,2013-05-08 19:00:00,
2013-05-08 20:42:00,52.0,-99.9,29.49,North,-999,-999.0,-999.0,-999,-99.99,,,-99.99,,2013-05-08 19:42:00,
2013-05-08 20:52:00,52.0,-99.9,29.49,North,-999,-999.0,-999.0,-999,-99.99,,,-99.99,,2013-05-08 19:52:00,
2013-05-08 21:00:00,50.0,-99.9,29.51,North,-999,-999.0,-999.0,-999,-99.99,,,-99.99,,2013-05-08 20:00:00,
2013-05-08 21:42:00,50.0,-99.9,29.51,North,-999,-999.0,-999.0,-999,-99.99,,,-99.99,,2013-05-08 20:42:00,
2013-05-08 21:52:00,50.0,-99.9,29.51,North,-999,-999.0,-999.0,-999,-99.99,,,-99.99,,2013-05-08 20:52:00,
2013-05-08 22:00:00,50.0,-99.9,29.52,North,-999,-999.0,-999.0,-999,-99.99,,,-99.99,,2013-05-08 21:00:00,
2013-05-08 22:44:00,50.0,-99.9,29.52,North,-999,-999.0,-999.0,-999,-99.99,,,-99.99,,2013-05-08 21:44:00,
2013-05-08 22:53:00,50.0,-99.9,29.52,North,-999,-999.0,-999.0,-999,-99.99,,,-99.99,,2013-05-08 21:53:00,
2013-05-08 23:00:00,48.0,-99.9,29.54,North,-999,-999.0,-999.0,-999,-99.99,,,-99.99,,2013-05-08 22:00:00,
2013-05-08 23:42:00,48.0,-99.9,29.54,North,-999,-999.0,-999.0,-999,-99.99,,,-99.99,,2013-05-08 22:42:00,
2013-05-08 23:53:00,48.0,-99.9,29.54,North,-999,-999.0,-999.0,-999,-99.99,,,-99.99,,2013-05-08 22:53:00,